Time,TemperatureF,DewpointF,PressureIn,WindDirection,WindDirectionDegrees,WindSpeedMPH,WindSpeedGustMPH,Humidity,HourlyPrecipIn,Conditions,Clouds,dailyrainin,SolarRadiationWatts/m^2,SoftwareType,DateUTC
2017-05-26 00:02:00,48.3,44.9,29.82,ESE,111,0.0,0.0,88,0.00,CLR,SCT,0.00,0.0,WeatherDisplay:10.37,2017-05-26 07:02:00,
2017-05-26 00:07:00,48.3,44.9,29.82,ESE,111,0.0,0.0,88,0.00,CLR,SCT,0.00,0.0,WeatherDisplay:10.37,2017-05-26 07:07:00,
2017-05-26 00:12:00,48.2,44.8,29.82,ESE,111,0.0,0.0,88,0.00,CLR,SCT,0.00,0.0,WeatherDisplay:10.37,2017-05-26 07:12:00,
2017-05-26 00:17:00,48.1,44.7,29.82,ESE,111,0.0,0.0,88,0.00,CLR,SCT,0.00,0.0,WeatherDisplay:10.37,2017-05-26 07:17:00,
2017-05-26 00:22:00,48.0,44.9,29.82,ESE,111,0.0,0.0,89,0.00,CLR,SCT,0.00,0.0,WeatherDisplay:10.37,2017-05-26 07:22:00,
2017-05-26 00:27:00,48.0,44.9,29.82,ESE,111,0.0,0.0,89,0.00,CLR,SCT,0.00,0.0,WeatherDisplay:10.37,2017-05-26 07:27:00,
2017-05-26 00:32:00,48.0,44.9,29.82,ESE,111,0.0,0.0,89,0.00,CLR,SCT,0.00,0.0,WeatherDisplay:10.37,2017-05-26 07:32:00,
2017-05-26 00:37:00,47.9,44.8,29.82,ESE,111,0.0,0.0,89,0.00,CLR,SCT,0.00,0.0,WeatherDisplay:10.37,2017-05-26 07:37:00,
2017-05-26 00:42:00,48.0,44.9,29.82,ESE,111,0.0,0.0,89,0.00,CLR,SCT,0.00,0.0,WeatherDisplay:10.37,2017-05-26 07:42:00,
2017-05-26 00:47:00,48.1,45.0,29.82,ESE,111,0.0,0.0,89,0.00,CLR,SCT,0.00,0.0,WeatherDisplay:10.37,2017-05-26 07:47:00,
2017-05-26 00:52:00,48.2,44.8,29.82,ESE,111,0.0,0.0,88,0.00,CLR,SCT,0.00,0.0,WeatherDisplay:10.37,2017-05-26 07:52:00,
2017-05-26 00:57:00,48.3,44.9,29.82,ESE,111,0.0,0.0,88,0.00,CLR,SCT,0.00,0.0,WeatherDisplay:10.37,2017-05-26 07:57:00,
2017-05-26 01:02:00,48.4,44.7,29.82,ESE,111,0.0,0.0,87,0.00,CLR,SCT,0.00,0.0,WeatherDisplay:10.37,2017-05-26 08:02:00,
2017-05-26 01:07:00,48.4,44.7,29.82,ESE,111,0.0,0.0,87,0.00,CLR,SCT,0.00,0.0,WeatherDisplay:10.37,2017-05-26 08:07:00,
2017-05-26 01:12:00,48.3,44.6,29.83,ESE,111,0.0,0.0,87,0.00,CLR,SCT,0.00,0.0,WeatherDisplay:10.37,2017-05-26 08:12:00,
2017-05-26 01:17:00,48.3,44.6,29.83,ESE,111,0.0,0.0,87,0.00,CLR,SCT,0.00,0.0,WeatherDisplay:10.37,2017-05-26 08:17:00,
2017-05-26 01:22:00,48.2,44.5,29.83,ESE,111,0.0,0.0,87,0.00,CLR,SCT,0.00,0.0,WeatherDisplay:10.37,2017-05-26 08:22:00,
2017-05-26 01:27:00,48.2,44.5,29.83,ESE,111,0.0,0.0,87,0.00,CLR,SCT,0.00,0.0,WeatherDisplay:10.37,2017-05-26 08:27:00,
2017-05-26 01:32:00,48.1,44.4,29.83,ESE,111,0.0,0.0,87,0.00,CLR,SCT,0.00,0.0,WeatherDisplay:10.37,2017-05-26 08:32:00,
2017-05-26 01:37:00,48.0,44.3,29.83,ESE,111,0.0,0.0,87,0.00,CLR,SCT,0.00,0.0,WeatherDisplay:10.37,2017-05-26 08:37:00,
2017-05-26 01:42:00,48.0,44.3,29.83,ESE,111,0.0,0.0,87,0.00,CLR,SCT,0.00,0.0,WeatherDisplay:10.37,2017-05-26 08:42:00,
2017-05-26 01:47:00,47.9,44.2,29.83,ESE,111,0.0,0.0,87,0.00,CLR,SCT,0.00,0.0,WeatherDisplay:10.37,2017-05-26 08:47:00,
2017-05-26 01:52:00,47.8,44.1,29.83,ESE,111,0.0,0.0,87,0.00,CLR,SCT,0.00,0.0,WeatherDisplay:10.37,2017-05-26 08:52:00,
2017-05-26 01:57:00,47.8,44.1,29.83,ESE,111,0.0,0.0,87,0.00,CLR,SCT,0.00,0.0,WeatherDisplay:10.37,2017-05-26 08:57:00,
2017-05-26 02:02:00,47.7,44.0,29.83,ESE,111,0.0,0.0,87,0.00,CLR,SCT,0.00,0.0,WeatherDisplay:10.37,2017-05-26 09:02:00,
2017-05-26 02:07:00,47.6,43.9,29.83,ESE,111,0.0,0.0,87,0.00,CLR,SCT,0.00,0.0,WeatherDisplay:10.37,2017-05-26 09:07:00,
2017-05-26 02:12:00,47.5,43.8,29.83,ESE,111,0.0,0.0,87,0.00,CLR,SCT,0.00,0.0,WeatherDisplay:10.37,2017-05-26 09:12:00,
2017-05-26 02:17:00,47.4,43.7,29.83,ESE,111,0.0,0.0,87,0.00,CLR,SCT,0.00,0.0,WeatherDisplay:10.37,2017-05-26 09:17:00,
2017-05-26 02:22:00,47.4,43.7,29.83,ESE,111,0.0,0.0,87,0.00,CLR,SCT,0.00,0.0,WeatherDisplay:10.37,2017-05-26 09:22:00,
2017-05-26 02:27:00,47.3,43.6,29.83,ESE,111,0.0,0.0,87,0.00,CLR,SCT,0.00,0.0,WeatherDisplay:10.37,2017-05-26 09:27:00,
2017-05-26 02:32:00,47.3,43.6,29.83,ESE,111,0.0,0.0,87,0.00,CLR,SCT,0.00,0.0,WeatherDisplay:10.37,2017-05-26 09:32:00,
2017-05-26 02:37:00,47.1,43.4,29.83,ESE,111,0.0,0.0,87,0.00,CLR,SCT,0.00,0.0,WeatherDisplay:10.37,2017-05-26 09:37:00,
2017-05-26 02:42:00,47.0,43.3,29.83,ESE,111,0.0,0.0,87,0.00,CLR,SCT,0.00,0.0,WeatherDisplay:10.37,2017-05-26 09:42:00,
2017-05-26 02:47:00,46.9,43.5,29.83,ESE,111,0.0,0.0,88,0.00,CLR,SCT,0.00,0.0,WeatherDisplay:10.37,2017-05-26 09:47:00,
2017-05-26 02:52:00,46.9,43.5,29.83,ESE,111,0.0,0.0,88,0.00,CLR,SCT,0.00,0.0,WeatherDisplay:10.37,2017-05-26 09:52:00,
2017-05-26 02:57:00,46.9,43.5,29.83,ESE,111,0.0,0.0,88,0.00,CLR,SCT,0.00,0.0,WeatherDisplay:10.37,2017-05-26 09:57:00,
2017-05-26 03:02:00,46.9,43.5,29.83,ESE,111,0.0,0.0,88,0.00,CLR,SCT,0.00,0.0,WeatherDisplay:10.37,2017-05-26 10:02:00,
2017-05-26 03:07:00,47.0,43.3,29.83,ESE,111,0.0,0.0,87,0.00,CLR,SCT,0.00,0.0,WeatherDisplay:10.37,2017-05-26 10:07:00,
2017-05-26 03:12:00,46.9,43.2,29.83,ESE,111,0.0,0.0,87,0.00,CLR,SCT,0.00,0.0,WeatherDisplay:10.37,2017-05-26 10:12:00,
2017-05-26 03:17:00,46.9,43.5,29.83,ESE,111,0.0,0.0,88,0.00,CLR,SCT,0.00,0.0,WeatherDisplay:10.37,2017-05-26 10:17:00,
2017-05-26 03:22:00,46.9,43.5,29.83,ESE,111,0.0,0.0,88,0.00,CLR,SCT,0.00,0.0,WeatherDisplay:10.37,2017-05-26 10:22:00,
2017-05-26 03:27:00,46.8,43.4,29.83,ESE,111,0.0,0.0,88,0.00,CLR,SCT,0.00,0.0,WeatherDisplay:10.37,2017-05-26 10:27:00,
2017-05-26 03:32:00,46.8,43.4,29.83,ESE,111,0.0,0.0,88,0.00,CLR,SCT,0.00,0.0,WeatherDisplay:10.37,2017-05-26 10:32:00,
2017-05-26 03:37:00,46.8,43.4,29.83,ESE,111,0.0,0.0,88,0.00,CLR,SCT,0.00,0.0,WeatherDisplay:10.37,2017-05-26 10:37:00,
2017-05-26 03:42:00,46.7,43.3,29.83,ESE,111,0.0,0.0,88,0.00,CLR,SCT,0.00,0.0,WeatherDisplay:10.37,2017-05-26 10:42:00,
2017-05-26 03:47:00,46.7,43.3,29.83,ESE,111,0.0,0.0,88,0.00,CLR,SCT,0.00,0.0,WeatherDisplay:10.37,2017-05-26 10:47:00,
2017-05-26 03:52:00,46.6,43.2,29.83,ESE,111,0.0,0.0,88,0.00,CLR,SCT,0.00,0.0,WeatherDisplay:10.37,2017-05-26 10:52:00,
2017-05-26 03:57:00,46.6,43.2,29.83,ESE,111,0.0,0.0,88,0.00,CLR,SCT,0.00,0.0,WeatherDisplay:10.37,2017-05-26 10:57:00,
2017-05-26 04:02:00,46.5,43.1,29.83,ESE,111,0.0,0.0,88,0.00,CLR,SCT,0.00,0.0,WeatherDisplay:10.37,2017-05-26 11:02:00,
2017-05-26 04:07:00,46.5,43.1,29.83,ESE,111,0.0,0.0,88,0.00,CLR,SCT,0.00,0.0,WeatherDisplay:10.37,2017-05-26 11:07:00,
2017-05-26 04:12:00,46.4,43.3,29.83,ESE,111,0.0,0.0,89,0.00,CLR,SCT,0.00,0.0,WeatherDisplay:10.37,2017-05-26 11:12:00,
2017-05-26 04:17:00,46.4,43.0,29.84,ESE,111,0.0,0.0,88,0.00,CLR,SCT,0.00,0.0,WeatherDisplay:10.37,2017-05-26 11:17:00,
2017-05-26 04:22:00,46.4,43.3,29.84,ESE,111,0.0,0.0,89,0.00,CLR,SCT,0.00,0.0,WeatherDisplay:10.37,2017-05-26 11:22:00,
2017-05-26 04:27:00,46.3,43.2,29.84,ESE,111,0.0,0.0,89,0.00,CLR,SCT,0.00,0.0,WeatherDisplay:10.37,2017-05-26 11:27:00,
2017-05-26 04:32:00,46.3,43.2,29.84,ESE,111,0.0,0.0,89,0.00,CLR,SCT,0.00,0.0,WeatherDisplay:10.37,2017-05-26 11:32:00,
2017-05-26 04:37:00,46.3,43.2,29.84,ESE,111,0.0,0.0,89,0.00,CLR,SCT,0.00,0.0,WeatherDisplay:10.37,2017-05-26 11:37:00,
2017-05-26 04:42:00,46.4,43.3,29.84,ESE,111,0.0,0.0,89,0.00,CLR,SCT,0.00,0.0,WeatherDisplay:10.37,2017-05-26 11:42:00,
2017-05-26 04:47:00,46.4,43.3,29.84,ESE,111,0.0,0.0,89,0.00,CLR,SCT,0.00,0.0,WeatherDisplay:10.37,2017-05-26 11:47:00,
2017-05-26 04:52:00,46.4,43.0,29.84,ESE,111,0.0,0.0,88,0.00,CLR,SCT,0.00,0.0,WeatherDisplay:10.37,2017-05-26 11:52:00,
2017-05-26 04:57:00,46.4,43.0,29.84,ESE,111,0.0,0.0,88,0.00,CLR,SCT,0.00,0.0,WeatherDisplay:10.37,2017-05-26 11:57:00,
2017-05-26 05:02:00,46.4,43.0,29.84,ESE,111,0.0,0.0,88,0.00,CLR,SCT,0.00,0.0,WeatherDisplay:10.37,2017-05-26 12:02:00,
2017-05-26 05:08:00,46.4,43.0,29.85,ESE,111,0.0,0.0,88,0.00,CLR,SCT,0.00,0.0,WeatherDisplay:10.37,2017-05-26 12:08:00,
2017-05-26 05:13:00,46.5,43.1,29.85,ESE,111,0.0,0.0,88,0.00,CLR,SCT,0.00,0.0,WeatherDisplay:10.37,2017-05-26 12:13:00,
2017-05-26 05:18:00,46.4,43.0,29.85,ESE,111,0.0,0.0,88,0.00,CLR,SCT,0.00,0.0,WeatherDisplay:10.37,2017-05-26 12:18:00,
2017-05-26 05:23:00,46.3,42.9,29.85,ESE,111,0.0,0.0,88,0.00,CLR,SCT,0.00,0.0,WeatherDisplay:10.37,2017-05-26 12:23:00,
2017-05-26 05:28:00,46.3,42.9,29.84,ESE,111,0.0,0.0,88,0.00,CLR,SCT,0.00,0.0,WeatherDisplay:10.37,2017-05-26 12:28:00,
2017-05-26 05:33:00,46.2,42.8,29.85,ESE,111,0.0,0.0,88,0.00,CLR,SCT,0.00,0.0,WeatherDisplay:10.37,2017-05-26 12:33:00,
2017-05-26 05:38:00,46.2,42.8,29.85,ESE,111,0.0,0.0,88,0.00,CLR,SCT,0.00,0.0,WeatherDisplay:10.37,2017-05-26 12:38:00,
2017-05-26 05:44:00,46.2,42.8,29.85,ESE,111,0.0,0.0,88,0.00,CLR,SCT,0.00,0.0,WeatherDisplay:10.37,2017-05-26 12:44:00,
2017-05-26 05:49:00,46.2,42.8,29.85,ESE,111,0.0,0.0,88,0.00,CLR,SCT,0.00,0.0,WeatherDisplay:10.37,2017-05-26 12:49:00,
2017-05-26 05:54:00,46.3,42.9,29.85,ESE,111,0.0,0.0,88,0.00,CLR,SCT,0.00,0.0,WeatherDisplay:10.37,2017-05-26 12:54:00,
2017-05-26 05:59:00,46.3,42.9,29.85,ESE,111,0.0,0.0,88,0.00,CLR,SCT,0.00,0.0,WeatherDisplay:10.37,2017-05-26 12:59:00,
2017-05-26 06:04:00,46.3,42.9,29.85,ESE,111,0.0,0.0,88,0.00,CLR,SCT,0.00,0.0,WeatherDisplay:10.37,2017-05-26 13:04:00,
2017-05-26 06:09:00,46.4,43.0,29.86,ESE,111,0.0,0.0,88,0.00,CLR,SCT,0.00,0.0,WeatherDisplay:10.37,2017-05-26 13:09:00,
2017-05-26 06:14:00,46.5,42.8,29.86,ESE,111,0.0,0.0,87,0.00,CLR,SCT,0.00,0.0,WeatherDisplay:10.37,2017-05-26 13:14:00,
2017-05-26 06:19:00,46.6,43.2,29.86,ESE,111,0.0,0.0,88,0.00,CLR,SCT,0.00,0.0,WeatherDisplay:10.37,2017-05-26 13:19:00,
2017-05-26 06:24:00,46.7,43.3,29.86,ESE,111,0.0,0.0,88,0.00,CLR,SCT,0.00,0.0,WeatherDisplay:10.37,2017-05-26 13:24:00,
2017-05-26 06:29:00,46.7,43.0,29.86,ESE,111,0.0,0.0,87,0.00,CLR,SCT,0.00,0.0,WeatherDisplay:10.37,2017-05-26 13:29:00,
2017-05-26 06:34:00,46.8,43.1,29.86,ESE,111,0.0,0.0,87,0.00,CLR,SCT,0.00,0.0,WeatherDisplay:10.37,2017-05-26 13:34:00,
2017-05-26 06:39:00,46.8,43.1,29.87,ESE,111,0.0,0.0,87,0.00,CLR,SCT,0.00,0.0,WeatherDisplay:10.37,2017-05-26 13:39:00,
2017-05-26 06:44:00,46.9,43.2,29.87,ESE,111,0.0,0.0,87,0.00,CLR,SCT,0.00,0.0,WeatherDisplay:10.37,2017-05-26 13:44:00,
2017-05-26 06:49:00,47.0,43.3,29.87,ESE,111,0.0,0.0,87,0.00,CLR,SCT,0.00,0.0,WeatherDisplay:10.37,2017-05-26 13:49:00,
2017-05-26 06:54:00,47.1,43.4,29.87,ESE,111,0.0,0.0,87,0.00,CLR,SCT,0.00,0.0,WeatherDisplay:10.37,2017-05-26 13:54:00,
2017-05-26 06:59:00,47.2,43.8,29.87,ESE,111,0.0,0.0,88,0.00,CLR,SCT,0.00,0.0,WeatherDisplay:10.37,2017-05-26 13:59:00,
2017-05-26 07:04:00,47.4,44.0,29.88,ESE,111,0.0,0.0,88,0.00,CLR,SCT,0.00,0.0,WeatherDisplay:10.37,2017-05-26 14:04:00,
2017-05-26 07:09:00,47.6,43.9,29.88,ESE,111,0.0,0.0,87,0.00,CLR,SCT,0.00,0.0,WeatherDisplay:10.37,2017-05-26 14:09:00,
2017-05-26 07:14:00,47.8,44.1,29.88,ESE,111,0.0,0.0,87,0.00,CLR,SCT,0.00,0.0,WeatherDisplay:10.37,2017-05-26 14:14:00,
2017-05-26 07:19:00,48.0,44.6,29.88,ESE,111,0.0,0.0,88,0.00,CLR,SCT,0.00,0.0,WeatherDisplay:10.37,2017-05-26 14:19:00,
2017-05-26 07:24:00,48.3,44.9,29.88,ESE,111,0.0,0.0,88,0.00,FEW,SCT,0.00,0.0,WeatherDisplay:10.37,2017-05-26 14:24:00,
2017-05-26 07:29:00,48.5,45.1,29.88,ESE,111,0.0,0.0,88,0.00,FEW,SCT,0.00,0.0,WeatherDisplay:10.37,2017-05-26 14:29:00,
2017-05-26 07:34:00,48.8,45.4,29.88,ESE,111,0.0,0.0,88,0.00,FEW,SCT,0.00,0.0,WeatherDisplay:10.37,2017-05-26 14:34:00,
2017-05-26 07:39:00,49.1,45.4,29.88,ESE,111,0.0,0.0,87,0.00,FEW,SCT,0.00,0.0,WeatherDisplay:10.37,2017-05-26 14:39:00,
2017-05-26 07:44:00,49.4,45.7,29.89,ESE,111,0.0,0.0,87,0.00,BKN,SCT,0.00,0.0,WeatherDisplay:10.37,2017-05-26 14:44:00,
2017-05-26 07:49:00,49.8,46.1,29.89,ESE,111,0.0,0.0,87,0.00,BKN,SCT,0.00,0.0,WeatherDisplay:10.37,2017-05-26 14:49:00,
2017-05-26 07:54:00,50.1,46.4,29.89,ESE,111,0.0,0.0,87,0.00,BKN,SCT,0.00,0.0,WeatherDisplay:10.37,2017-05-26 14:54:00,
2017-05-26 07:59:00,50.5,46.8,29.89,ESE,111,0.0,0.0,87,0.00,BKN,SCT,0.00,0.0,WeatherDisplay:10.37,2017-05-26 14:59:00,
2017-05-26 08:04:00,51.0,46.6,29.89,ESE,111,0.0,0.0,85,0.00,OVC,SCT,0.00,0.0,WeatherDisplay:10.37,2017-05-26 15:04:00,
2017-05-26 08:09:00,51.5,47.1,29.89,NE,49,0.0,0.0,85,0.00,OVC,SCT,0.00,0.0,WeatherDisplay:10.37,2017-05-26 15:09:00,
2017-05-26 08:14:00,52.1,46.1,29.89,NW,313,0.0,0.0,80,0.00,OVC,SCT,0.00,0.0,WeatherDisplay:10.37,2017-05-26 15:14:00,
2017-05-26 08:19:00,52.8,46.5,29.89,NW,314,0.0,0.0,79,0.00,OVC,SCT,0.00,0.0,WeatherDisplay:10.37,2017-05-26 15:19:00,
2017-05-26 08:24:00,53.5,46.5,29.89,NW,315,0.0,0.0,77,0.00,OVC,SCT,0.00,0.0,WeatherDisplay:10.37,2017-05-26 15:24:00,
2017-05-26 08:29:00,54.0,47.0,29.89,NW,315,0.0,0.0,77,0.00,OVC,SCT,0.00,0.0,WeatherDisplay:10.37,2017-05-26 15:29:00,
2017-05-26 08:34:00,54.5,47.1,29.90,WNW,302,1.1,0.0,76,0.00,OVC,SCT,0.00,0.0,WeatherDisplay:10.37,2017-05-26 15:34:00,
2017-05-26 08:39:00,54.8,46.3,29.90,WNW,302,0.0,0.0,73,0.00,OVC,SCT,0.00,0.0,WeatherDisplay:10.37,2017-05-26 15:39:00,
2017-05-26 08:44:00,55.3,46.8,29.90,NW,312,0.0,0.0,73,0.00,OVC,SCT,0.00,0.0,WeatherDisplay:10.37,2017-05-26 15:44:00,
2017-05-26 08:49:00,55.6,46.3,29.90,North,350,1.1,0.0,71,0.00,OVC,SCT,0.00,0.0,WeatherDisplay:10.37,2017-05-26 15:49:00,
2017-05-26 08:54:00,55.9,46.6,29.90,North,350,0.0,0.0,71,0.00,OVC,SCT,0.00,0.0,WeatherDisplay:10.37,2017-05-26 15:54:00,
2017-05-26 08:59:00,56.3,47.0,29.90,East,92,2.0,2.0,71,0.00,OVC,SCT,0.00,0.0,WeatherDisplay:10.37,2017-05-26 15:59:00,
2017-05-26 09:04:00,56.8,46.3,29.90,SSE,155,4.6,4.6,68,0.00,BKN,SCT,0.00,0.0,WeatherDisplay:10.37,2017-05-26 16:04:00,
2017-05-26 09:09:00,57.2,46.3,29.90,ESE,123,0.0,0.0,67,0.00,BKN,SCT,0.00,0.0,WeatherDisplay:10.37,2017-05-26 16:09:00,
2017-05-26 09:14:00,57.6,46.7,29.91,SSE,154,0.0,0.0,67,0.00,BKN,SCT,0.00,0.0,WeatherDisplay:10.37,2017-05-26 16:14:00,
2017-05-26 09:20:00,58.1,46.4,29.91,SE,146,0.0,0.0,65,0.00,BKN,SCT,0.00,0.0,WeatherDisplay:10.37,2017-05-26 16:20:00,